This is the latest recevied weather packets stored in our database for station/object KM4KMS. If no packets are shown the sender has not sent any weather packets the latest 10 day(s).
| Time | Temp. | Humidity | Pressure | Rain* | Wind** | Luminosity | Snow |
|---|---|---|---|---|---|---|---|
| 1777582657 | 16.11° C | 46% | 1014.4 hPa | 0 mm | - | 426 W/m² | - |
| 1777582352 | 16.11° C | 44% | 1014.6 hPa | 0 mm | - | 426 W/m² | - |
| 1777582050 | 16.67° C | 44% | 1014.4 hPa | 0 mm | - | 454 W/m² | - |
| 1777581745 | 16.67° C | 43% | 1014.7 hPa | 0 mm | - | 501 W/m² | - |
| 1777581443 | 16.67° C | 43% | 1014.8 hPa | 0 mm | - | 514 W/m² | - |
| 1777581138 | 16.11° C | 43% | 1014.7 hPa | 0 mm | - | 478 W/m² | - |
| 1777580834 | 16.11° C | 44% | 1014.6 hPa | 0 mm | - | 487 W/m² | - |
| 1777580529 | 16.11° C | 44% | 1014.4 hPa | 0 mm | - | 515 W/m² | - |
| 1777580224 | 16.67° C | 44% | 1014.9 hPa | 0 mm | - | 523 W/m² | - |
| 1777579922 | 16.67° C | 41% | 1015 hPa | 0 mm | - | 544 W/m² | - |
| 1777579616 | 15.56° C | 49% | 1015 hPa | 0 mm | - | 572 W/m² | - |
| 1777579310 | 15.56° C | 46% | 1015.1 hPa | 0 mm | - | 601 W/m² | - |
| 1777579006 | 16.11° C | 46% | 1015.2 hPa | 0 mm | - | 630 W/m² | - |
| 1777578701 | 16.11° C | 44% | 1015.2 hPa | 0 mm | - | 625 W/m² | - |
| 1777578400 | 16.11° C | 40% | 1015.4 hPa | 0 mm | - | 619 W/m² | - |
| 1777578096 | 15.56° C | 48% | 1015.2 hPa | 0 mm | - | 655 W/m² | - |
| 1777577793 | 16.11° C | 42% | 1015.6 hPa | 0 mm | - | 629 W/m² | - |
| 1777577488 | 15.56° C | 49% | 1015.7 hPa | 0 mm | - | 631 W/m² | - |
| 1777577185 | 15° C | 44% | 1015.5 hPa | 0 mm | - | 628 W/m² | - |
| 1777576881 | 16.11° C | 46% | 1015.8 hPa | 0 mm | - | 629 W/m² | - |
| 1777576581 | 15.56° C | 49% | 1015.7 hPa | 0 mm | - | 621 W/m² | - |
| 1777576277 | 15.56° C | 49% | 1015.5 hPa | 0 mm | - | 652 W/m² | - |
| 1777575974 | 15° C | 46% | 1015.5 hPa | 0 mm | - | 645 W/m² | - |
| 1777575670 | 15.56° C | 46% | 1015.6 hPa | 0 mm | - | 650 W/m² | - |
| 1777575365 | 15.56° C | 50% | 1015.4 hPa | 0 mm | - | 665 W/m² | - |
* Rain latest hour (hover to see other rain measurements)
** Current wind speed in m/s (hover to see current wind gust speed)